WA5LEE Weather Reports


time (UTC)temp
F
wind
direction
speed
knots
gust
knots
rain 1hr
in
rain 24hr
in
rain mn
in
humidity
%
barometer
mb
20260506105504 0 0.0 0.0 0.00 0.00 0.00 1008.6
20260506105007 0 0.0 0.0 0.00 0.00 0.00 1008.6
20260506104508 0 0.0 0.0 0.00 0.00 0.00 1008.6
20260506104003 0 0.0 0.0 0.00 0.00 0.00 1008.5
20260506103504 0 0.0 0.0 0.00 0.00 0.00 1008.5
20260506103009 0 0.0 0.0 0.00 0.00 0.00 1008.7
20260506102504 0 0.0 0.0 0.00 0.00 0.00 1008.6
20260506102004 0 0.0 0.0 0.00 0.00 0.00 1008.7
20260506101516 0 0.0 0.0 0.00 0.00 0.00 1008.6
20260506101004 0 0.0 0.0 0.00 0.00 0.00 1008.6
20260506100504 0 0.0 0.0 0.00 0.00 0.00 1008.5
20260506100010 0 0.0 0.0 0.00 0.00 0.00 1008.5
20260506095506 0 0.0 0.0 0.00 0.00 0.00 1008.4
20260506095004 0 0.0 0.0 0.00 0.00 0.00 1008.6
20260506094520 0 0.0 0.0 0.00 0.00 0.00 1008.4
20260506094004 0 0.0 0.0 0.00 0.00 0.00 1008.3
20260506093504 0 0.0 0.0 0.00 0.00 0.00 1008.2
20260506093014 0 0.0 0.0 0.00 0.00 0.00 1008.2
20260506092504 0 0.0 0.0 0.00 0.00 0.00 1008.2
20260506092007 0 0.0 0.0 0.00 0.00 0.00 1008.2
20260506091508 0 0.0 0.0 0.00 0.00 0.00 1008.2
20260506091005 0 0.0 0.0 0.00 0.00 0.00 1008.1
20260506090504 0 0.0 0.0 0.00 0.00 0.00 1008.0
20260506090010 0 0.0 0.0 0.00 0.00 0.00 1008.0
20260506085004 0 0.0 0.0 0.00 0.00 0.00 87 1008.1
20260506084002 76 221 0.0 1.7 0.00 0.00 0.00 87 1008.2
20260506083503 76 221 0.0 0.9 0.00 0.00 0.00 87 1008.3
20260506083011 76 141 0.0 0.0 0.00 0.00 0.00 87 1008.2
20260506082503 76 141 0.0 0.9 0.00 0.00 0.00 87 1008.3
20260506082003 76 140 0.0 1.7 0.00 0.00 0.00 87 1008.3
20260506081510 76 192 0.0 1.7 0.00 0.00 0.00 87 1008.5
20260506081004 76 166 0.0 2.6 0.00 0.00 0.00 87 1008.5
20260506080504 76 166 0.9 2.6 0.00 0.00 0.00 87 1008.6
20260506073505 76 177 0.0 0.9 0.00 0.00 0.00 87 1008.9
20260506072504 76 340 0.0 1.7 0.00 0.00 0.00 87 1009.0
20260506072003 76 202 0.0 1.7 0.00 0.00 0.00 87 1009.1
20260506071514 76 254 0.0 1.7 0.00 0.00 0.00 87 1009.1
20260506071006 76 130 0.0 1.7 0.00 0.00 0.00 87 1009.2
20260506070503 76 217 0.0 0.9 0.00 0.00 0.00 87 1009.3
20260506062505 76 246 0.0 1.7 0.00 0.00 0.00 87 1009.2
20260506062005 76 246 0.0 1.7 0.00 0.00 0.00 87 1009.2
20260506061512 76 246 0.0 0.9 0.00 0.00 0.00 87 1009.2
20260506061010 76 245 0.0 0.9 0.00 0.00 0.00 86 1009.3
20260506060504 77 245 0.0 1.7 0.00 0.00 0.00 86 1009.2
20260506051005 77 150 0.0 1.7 0.00 0.00 0.00 85 1009.3
20260506050506 77 67 0.0 1.7 0.00 0.00 0.00 85 1009.4
20260506045005 77 155 0.0 1.7 0.00 0.00 0.00 85 1009.2
20260506044512 77 232 0.0 1.7 0.00 0.00 0.00 85 1009.3
20260506044003 77 279 0.0 1.7 0.00 0.00 0.00 85 1009.3
20260506043505 77 180 0.0 1.7 0.00 0.00 0.00 85 1009.2
20260506043003 77 138 0.0 1.7 0.00 0.00 0.00 85 1009.2
20260506042504 77 138 0.0 1.7 0.00 0.00 0.00 84 1009.3
20260506042007 77 226 0.0 1.7 0.00 0.00 0.00 84 1009.4
20260506041515 77 226 0.0 1.7 0.00 0.00 0.00 84 1009.3
20260506041004 77 184 0.0 1.7 0.00 0.00 0.00 84 1009.2
20260506040505 77 98 0.0 1.7 0.00 0.00 0.00 84 1009.1
20260506040012 77 178 0.0 1.7 0.00 0.00 0.00 84 1009.1
20260506035506 78 107 0.0 1.7 0.00 0.00 0.00 84 1009.1
20260506034518 78 250 0.0 1.7 0.00 0.00 0.00 84 1008.9
20260506034005 78 202 0.0 0.0 0.00 0.00 0.00 84 1008.9
20260506033007 78 192 0.0 1.7 0.00 0.00 0.00 83 1008.9
20260506032503 78 182 0.0 1.7 0.00 0.00 0.00 83 1008.8
20260506032007 78 142 0.0 1.7 0.00 0.00 0.00 83 1008.8
20260506031504 78 103 0.0 1.7 0.00 0.00 0.00 83 1008.8
20260506031005 78 313 0.0 1.7 0.00 0.00 0.00 83 1008.8
20260506030504 78 192 0.0 1.7 0.00 0.00 0.00 83 1008.8
20260506030004 78 205 0.0 1.7 0.00 0.00 0.00 83 1008.6
20260506025503 78 67 0.0 1.7 0.00 0.00 0.00 83 1008.6
20260506025003 78 331 0.0 2.6 0.00 0.00 0.00 83 1008.5
20260506024517 78 254 0.0 2.6 0.00 0.00 0.00 83 1008.3
20260506023504 78 214 0.0 1.7 0.00 0.00 0.00 82 1008.0
20260506023016 78 215 0.0 1.7 0.00 0.00 0.00 82 1008.0
20260506022502 78 160 0.0 0.9 0.00 0.00 0.00 82 1007.8
20260506021511 78 155 0.0 1.7 0.00 0.00 0.00 81 1007.9
20260506021007 78 155 0.0 0.9 0.00 0.00 0.00 81 1007.8
20260506020503 78 126 0.0 0.9 0.00 0.00 0.00 81 1007.7
20260506020010 79 161 0.0 1.7 0.00 0.00 0.00 81 1007.7
20260506015506 79 161 0.0 1.7 0.00 0.00 0.00 81 1007.6
20260506015006 79 61 0.0 1.7 0.00 0.00 0.00 81 1007.6
20260506014507 79 78 0.0 1.7 0.00 0.00 0.00 80 1007.5
20260506014003 79 196 0.0 1.7 0.00 0.00 0.00 80 1007.4
20260506013508 79 142 0.0 1.7 0.00 0.00 0.00 80 1007.4
20260506012502 79 209 0.0 1.7 0.00 0.00 0.00 80 1007.4
20260506012008 79 159 0.0 1.7 0.00 0.00 0.00 80 1007.3
20260506011507 79 134 0.0 1.7 0.00 0.00 0.00 80 1007.1
20260506011005 79 68 0.0 1.7 0.00 0.00 0.00 80 1007.0
20260506010018 80 279 0.0 1.7 0.00 0.00 0.00 79 1006.9
20260506005503 80 56 0.0 4.3 0.00 0.00 0.00 79 1006.9
20260506005002 80 105 0.9 4.3 0.00 0.00 0.00 79 1006.9
20260506004530 80 92 0.0 1.7 0.00 0.00 0.00 79 1007.0
20260506003504 80 113 0.0 1.7 0.00 0.00 0.00 79 1006.9
20260506003018 80 116 0.0 1.7 0.00 0.00 0.00 79 1006.8
20260506002511 81 138 0.0 1.7 0.00 0.00 0.00 79 1006.9
20260506001509 81 221 0.0 1.7 0.00 0.00 0.00 78 1006.7
20260506001006 81 227 0.0 1.7 0.00 0.00 0.00 78 1006.7
20260506000507 81 142 0.0 1.7 0.00 0.00 0.00 77 1006.6
20260505235007 81 157 0.9 4.3 0.00 0.00 0.00 76 1006.7
20260505234508 82 191 0.0 2.6 0.00 0.00 0.00 76 1006.7
20260505234003 82 164 0.0 1.7 0.00 0.00 0.00 76 1006.6
20260505233508 82 174 0.0 1.7 0.00 0.00 0.00 75 1006.5
20260505233021 82 191 0.0 3.5 0.00 0.00 0.00 76 1006.6
20260505232503 82 180 0.0 4.3 0.00 0.00 0.00 76 1006.6
20260505232005 82 98 0.0 4.3 0.00 0.00 0.00 75 1006.5
20260505231520 82 122 0.0 3.5 0.00 0.00 0.00 75 1006.6
20260505231003 82 292 0.0 3.5 0.00 0.00 0.00 75 1006.6
20260505230014 83 235 0.0 2.6 0.00 0.00 0.00 75 1006.8
20260505225509 83 218 0.0 2.6 0.00 0.00 0.00 74 1006.7
20260505225004 83 149 0.9 1.7 0.00 0.00 0.00 74 1006.5
20260505224007 83 134 0.9 1.7 0.00 0.00 0.00 73 1006.5
20260505223505 83 112 0.0 4.3 0.00 0.00 0.00 75 1006.5
20260505223010 83 194 0.9 4.3 0.00 0.00 0.00 74 1006.6
20260505222506 83 227 0.0 1.7 0.00 0.00 0.00 75 1006.6
20260505221512 83 190 0.0 4.3 0.00 0.00 0.00 76 1006.6
20260505221003 83 150 0.9 4.3 0.00 0.00 0.00 75 1006.5
20260505220512 83 77 0.0 1.7 0.00 0.00 0.00 76 1006.5
20260505220013 83 215 0.0 8.7 0.00 0.00 0.00 75 1006.7
20260505215007 83 55 0.0 3.5 0.00 0.00 0.00 75 1006.9
20260505214524 83 202 0.9 7.0 0.00 0.00 0.00 75 1007.0
20260505214003 83 131 0.9 7.0 0.00 0.00 0.00 75 1007.1
20260505213018 83 168 0.0 2.6 0.00 0.00 0.00 75 1007.3
20260505212513 83 217 0.9 2.6 0.00 0.00 0.00 74 1007.3
20260505212010 83 156 0.9 2.6 0.00 0.00 0.00 75 1007.3
20260505210504 84 152 0.0 1.7 0.00 0.00 0.00 73 1007.4
20260505210015 85 214 0.0 2.6 0.00 0.00 0.00 73 1007.5
20260505205508 85 182 0.0 2.6 0.00 0.00 0.00 73 1007.5
20260505205010 85 118 0.0 2.6 0.00 0.00 0.00 72 1007.5
20260505204511 85 127 0.9 3.5 0.00 0.00 0.00 73 1007.5
20260505204009 85 360 0.0 3.5 0.00 0.00 0.00 74 1007.8
20260505203507 85 113 0.9 2.6 0.00 0.00 0.00 75 1007.8
20260505203007 84 199 0.0 2.6 0.00 0.00 0.00 73 1007.8
20260505201525 84 223 0.9 5.2 0.00 0.00 0.00 75 1008.0
20260505201003 84 148 0.9 9.6 0.00 0.00 0.00 74 1008.1
20260505200508 83 142 0.9 9.6 0.00 0.00 0.00 74 1008.2
20260505195504 83 236 0.9 7.8 0.00 0.00 0.00 76 1008.5
20260505195005 82 124 0.0 7.8 0.00 0.00 0.00 77 1008.6
20260505194532 82 213 0.0 3.5 0.00 0.00 0.00 78 1008.6
20260505194009 82 169 0.9 3.5 0.00 0.00 0.00 77 1008.7
20260505193502 82 187 0.0 1.7 0.00 0.00 0.00 77 1008.8
20260505193032 82 203 0.0 1.7 0.00 0.00 0.00 77 1008.6
20260505192512 83 312 0.0 4.3 0.00 0.00 0.00 77 1008.6
20260505192003 83 159 0.0 4.3 0.00 0.00 0.00 75 1008.7
20260505191518 82 223 0.0 1.7 0.00 0.00 0.00 76 1008.7
20260505191013 82 125 0.0 6.1 0.00 0.00 0.00 76 1008.7
20260505190508 82 246 1.7 6.1 0.00 0.00 0.00 76 1008.8
20260505190013 82 164 0.9 3.5 0.00 0.00 0.00 78 1008.8
20260505185509 81 161 0.9 3.5 0.00 0.00 0.00 78 1008.9
20260505185008 81 178 0.0 3.5 0.00 0.00 0.00 78 1008.9
20260505184527 81 201 0.9 3.5 0.00 0.00 0.00 77 1009.0
20260505184007 81 203 0.9 7.0 0.00 0.00 0.00 78 1009.0
20260505183506 81 292 0.9 7.0 0.00 0.00 0.00 79 1009.0
20260505183028 80 183 0.9 7.0 0.00 0.00 0.00 79 1009.0
20260505182009 80 208 0.0 3.5 0.00 0.00 0.00 80 1009.1
20260505181522 80 17 0.0 1.7 0.00 0.00 0.00 79 1009.2
20260505181012 80 134 0.0 1.7 0.00 0.00 0.00 80 1009.1
20260505180507 80 186 0.0 1.7 0.00 0.00 0.00 80 1009.1
20260505180032 80 306 0.0 3.5 0.00 0.00 0.00 80 1009.1
20260505175508 80 167 0.0 3.5 0.00 0.00 0.00 81 1009.2
20260505175005 79 220 0.9 1.7 0.00 0.00 0.00 81 1009.2
20260505174531 79 164 0.0 3.5 0.00 0.00 0.00 81 1009.3
20260505174010 79 164 0.0 3.5 0.00 0.00 0.00 81 1009.4
20260505173510 79 155 0.9 3.5 0.00 0.00 0.00 82 1009.5
20260505173016 79 175 0.0 3.5 0.00 0.00 0.00 83 1009.5
20260505172506 78 148 0.0 2.6 0.00 0.00 0.00 83 1009.5
20260505172008 78 192 0.0 4.3 0.00 0.00 0.00 84 1009.5
20260505171514 78 190 0.0 4.3 0.00 0.00 0.00 83 1009.6
20260505170508 78 157 0.0 1.7 0.00 0.00 0.00 82 1009.7
20260505170028 79 192 0.0 2.6 0.00 0.00 0.00 82 1009.6
20260505165504 79 121 0.0 2.6 0.00 0.00 0.00 82 1009.7
20260505165007 79 246 0.0 1.7 0.00 0.00 0.00 82 1009.7
20260505164524 79 181 0.0 2.6 0.00 0.00 0.00 82 1009.7
20260505164010 78 173 0.0 2.6 0.00 0.00 0.00 82 1009.8
20260505163506 78 37 0.0 3.5 0.00 0.00 0.00 82 1009.7
20260505163024 78 195 0.0 4.3 0.00 0.00 0.00 82 1009.7
20260505162509 78 215 0.9 4.3 0.00 0.00 0.00 83 1009.7
20260505162007 78 215 0.0 1.7 0.00 0.00 0.00 83 1009.6
20260505161522 78 247 0.0 2.6 0.00 0.00 0.00 83 1009.6
20260505161008 77 196 0.0 7.0 0.00 0.00 0.00 83 1009.6
20260505153031 77 126 0.9 1.7 0.00 0.00 0.00 83 1009.4
20260505152504 77 212 0.0 1.7 0.00 0.00 0.00 83 1009.4
20260505152010 77 238 0.0 4.3 0.00 0.00 0.00 83 1009.4
20260505151529 77 219 0.9 5.2 0.00 0.00 0.00 83 1009.3
20260505151006 76 196 0.0 5.2 0.00 0.00 0.00 83 1009.3
20260505150507 76 221 0.0 2.6 0.00 0.00 0.00 83 1009.3
20260505140511 75 173 0.0 4.3 0.00 0.00 0.00 85 1009.1
20260505125011 0 0.0 0.0 0.00 0.00 0.00 1008.8
20260505124526 0 0.0 0.0 0.00 0.00 0.00 1008.4
20260505124011 0 0.0 0.0 0.00 0.00 0.00 1008.4
20260505123508 0 0.0 0.0 0.00 0.00 0.00 1008.7
20260505123041 0 0.0 0.0 0.00 0.00 0.00 1008.9
20260505122509 0 0.0 0.0 0.00 0.00 0.00 1008.8
20260505122013 0 0.0 0.0 0.00 0.00 0.00 1008.9
20260505121528 0 0.0 0.0 0.00 0.00 0.00 1008.9
20260505121010 0 0.0 0.0 0.00 0.00 0.00 1008.6
20260505120029 0 0.0 0.0 0.00 0.00 0.00 1008.5
20260505115510 0 0.0 0.0 0.00 0.00 0.00 1008.5
20260505115007 0 0.0 0.0 0.00 0.00 0.00 1008.3
20260505114526 0 0.0 0.0 0.00 0.00 0.00 1008.1
20260505114008 0 0.0 0.0 0.00 0.00 0.00 1008.3
20260505113510 0 0.0 0.0 0.00 0.00 0.00 1008.6
20260505113034 0 0.0 0.0 0.00 0.00 0.00 1008.7
20260505112509 0 0.0 0.0 0.00 0.00 0.00 1008.6
20260505112015 0 0.0 0.0 0.00 0.00 0.00 1008.6
20260505111542 0 0.0 0.0 0.00 0.00 0.00 1008.4
20260505111013 0 0.0 0.0 0.00 0.00 0.00 1008.5
20260505110513 0 0.0 0.0 0.00 0.00 0.00 1008.3